User: anonymous   Login
Location: Unspecified
(0.0000°N, 0.0000°E)
Time: 23:17:29
(UTC+00:00)
Language:

STARLINK-34184 - Orbit

View from above orbital plane
View from above orbital plane
View from above satellite
View from above satellite

Ground track
Ground track

The orbit is defined by the following mean orbital elements,

1 64023U          26145.35649742 +.00000000 +00000-0 +26376-3 0 00003
2 64023  70.0009 281.2488 0002677 276.2491  83.8363 14.98336269    01
Epoch (UTC): 25 May 2026 08:33:21
Eccentricity: 0.0002677
inclination: 70.0009°
perigee height: 570 km
apogee height: 574 km
right ascension of ascending node: 281.2488°
argument of perigee: 276.2491°
revolutions per day: 14.98336269
mean anomaly at epoch: 83.8363°

The dashed part of the orbit path shows where the satellite is in the earth's shadow,  

DLR